Tracking 28790 objects as of 19-Apr-2024
HD Live streaming from Space Station
objects crossing your sky now

ARIANE 5 R/B

Track ARIANE 5 R/B now!


NORAD ID: 29275
Int'l Code: 2006-033D
Perigee: 255.4 km
Apogee: 31,813.6 km
Inclination: 5.9 °
Period: 556.3 minutes
Semi major axis: 22405 km
RCS: 37.7588 m2 (large)
Launch date: August 11, 2006
Source: France (FR)
Launch site: FRENCH GUIANA (FRGUI)

Note: This is a ROCKET BODY
Your satellite tracking list
Your tracking list is empty




NASA's NSSDC Master Catalog

Two Line Element Set (TLE):
1 29275U 06033D   24109.17078504  .00008269  00000-0  19041-2 0  9997
2 29275   5.8979 121.6684 7042504 104.9509 337.0367  2.58863397156555
Source of the keplerian elements: AFSPC